Regional Weather Roundup
Issued by NWS

Home | Current Version | Previous Version | Graphics & Text | Print | Product List | Glossary On
Versions: 1 2 3 4 5 6 7 8 9 10 11 12 13 14 15 16 17 18 19 20 21 22 23 24 25 26 27 28 29 30 31 32 33 34 35 36 37 38 39 40 41 42 43 44 45 46 47 48 49 50
000
ASUS43 KBIS 240510
RWRND

NORTH DAKOTA REGIONAL WEATHER ROUNDUP
NATIONAL WEATHER SERVICE BISMARCK ND
1200 AM CDT THU JUL 24 2014

NOTE: "FAIR" INDICATES FEW OR NO CLOUDS BELOW 12,000 FEET WITH NO
SIGNIFICANT WEATHER AND/OR OBSTRUCTIONS TO VISIBILITY.


NDZ001>003-009>011-017-240600-
NORTHWEST NORTH DAKOTA

CITY           SKY/WX    TMP DP  RH WIND       PRES   REMARKS
WILLISTON      PTCLDY    74  61  63 E12       29.99S
MINOT          PTCLDY    65  62  90 E9        30.08F
MINOT AFB      PTCLDY    65  64  99 E12       30.07F
$$

NDZ018>021-031>035-040>046-240600-
SOUTHWEST NORTH DAKOTA

CITY           SKY/WX    TMP DP  RH WIND       PRES   REMARKS
BISMARCK       MOCLDY    68  59  73 SE13      30.10S
DICKINSON      CLEAR     68  57  68 SE16      30.02F
GARRISON         N/A     68  63  84 SE13      30.07F
HETTINGER ARPT CLEAR     69  55  60 E14G24    30.05F
$$

NDZ004>008-012>016-024-026-027-054-240600-
NORTHEAST NORTH DAKOTA

CITY           SKY/WX    TMP DP  RH WIND       PRES   REMARKS
GRAND FORKS    PTCLDY    65  57  75 E5        30.16F
GRND FRKS AFB  PTCLDY    62  59  90 CALM      30.17F
DEVILS LAKE    CLEAR     64  57  77 E12       30.15S
$$

NDZ022-023-025-028>030-036>039-047>053-240600-
SOUTHEAST NORTH DAKOTA

CITY           SKY/WX    TMP DP  RH WIND       PRES   REMARKS
FARGO          CLEAR     64  59  83 E5        30.16F
JAMESTOWN      CLEAR     65  60  84 E9        30.15F
$$



USA.gov is the U.S. government's official web portal to all federal, state and local government web resources and services.